09.05.2024;22:00;52
09.05.2024;21:00;82
09.05.2024;20:00;94
09.05.2024;19:00;100
09.05.2024;18:00;99
09.05.2024;17:00;95
09.05.2024;16:00;95
09.05.2024;15:00;97
09.05.2024;14:00;96
09.05.2024;13:00;86
09.05.2024;12:00;71
09.05.2024;11:00;65
09.05.2024;10:00;50
09.05.2024;09:00;31
09.05.2024;08:00;22
09.05.2024;07:00;18
09.05.2024;06:00;18
09.05.2024;05:00;31
09.05.2024;04:00;32
09.05.2024;03:00;29
09.05.2024;02:00;34
09.05.2024;01:00;41
09.05.2024;00:00;37
08.05.2024;23:00;47
08.05.2024;22:00;41
08.05.2024;21:00;44
08.05.2024;20:00;40
08.05.2024;19:00;47
08.05.2024;18:00;39
08.05.2024;17:00;37
08.05.2024;16:00;34
08.05.2024;15:00;31
08.05.2024;14:00;33
08.05.2024;13:00;29
08.05.2024;12:00;28
08.05.2024;11:00;24
08.05.2024;10:00;29
08.05.2024;09:00;27
08.05.2024;08:00;31
08.05.2024;07:00;34
08.05.2024;06:00;32
08.05.2024;05:00;37
08.05.2024;04:00;42
08.05.2024;03:00;48
08.05.2024;02:00;55
08.05.2024;01:00;51
08.05.2024;00:00;48
07.05.2024;23:00;47
